Weather History for KYKM - December, 2012

Change the Weather History Date:

Monday, December 17, 2012

  Actual Average Record
Temperature  
Mean Temperature 33 °F 28 °F  
Max Temperature 46 °F 35 °F 56 °F (1990)
Min Temperature 19 °F 21 °F -17 °F (1964)
Degree Days  
Heating Degree Days 32 37  
Month to date heating degree days 477 606  
Since 1 July heating degree days 1715 2139  
Cooling Degree Days 0 0  
Month to date cooling degree days 0 0  
Year to date cooling degree days 667 472  
Moisture  
Dew Point 27 °F    
Average Humidity 71    
Maximum Humidity 96    
Minimum Humidity 45    
Precipitation  
Precipitation 0.04 in 0.06 in 0.20 in (1977)
Month to date precipitation 1.42 0.83  
Year to date precipitation 8.61 7.55  
Snow  
Snow 0.00 in 0.30 in 2.00 in (1984)
Month to date snowfall 7.4 5.0  
Year to date snowfall 29.6 17.2  
Since 1 July snowfall 8.1 8.6  
Snow Depth 4.00 in    
Sea Level Pressure  
Sea Level Pressure 29.45 in    
Wind  
Wind Speed 9 mph (WSW)    
Max Wind Speed 26 mph    
Max Gust Speed 43 mph    
Visibility 8 miles    
Events Rain    
T = Trace of Precipitation, MM = Missing Value Source: NWS Daily Summary

Daily Weather History Graph

Daily Weather History Graph

Search for Another Location

Airport or City:

Trip Planner

Search our weather history database for the weather conditions in past years. The results will help you decide how hot, cold, wet, or windy it might be!

Date:

Astronomy

Dec. 17, 2012 Rise Set
Actual Time 7:41 AM PST 4:15 PM PST
Civil Twilight 7:06 AM PST 4:51 PM PST
Nautical Twilight 6:27 AM PST 5:29 PM PST
Astronomical Twilight 5:50 AM PST 6:06 PM PST
Moon 10:37 AM PST (12/17) 10:00 PM PST (12/17)
Length of Visible Light 9h 44m
Length of Day
8h 34m
Waxing Crescent, 26% of the Moon is Illuminated
Dec 17
Waxing Crescent
Dec 19
First Quarter
Dec 28
Full
Jan 4
Last Quarter
Jan 11
New

Hourly Weather History & Observations

Time (PST) Temp. Windchill Dew Point Humidity Pressure Visibility Wind Dir Wind Speed Gust Speed Precip Events Conditions
12:27 AM 33.8 °F - 32.0 °F 93% 29.13 in 3.0 mi Calm Calm - 0.02 in Rain Light Rain
12:33 AM 33.8 °F - 32.0 °F 93% 29.13 in 2.5 mi Calm Calm - 0.03 in Rain Light Rain
12:40 AM 33.8 °F 30.8 °F 30.2 °F 87% 29.12 in 3.0 mi NW 3.5 mph - 0.03 in Rain Light Rain
12:53 AM 34.0 °F 31.0 °F 32.0 °F 92% 29.15 in 3.0 mi WSW 3.5 mph - 0.04 in Rain Light Rain
1:53 AM 34.0 °F 29.8 °F 32.0 °F 92% 29.13 in 3.0 mi NE 4.6 mph - 0.00 in Rain Light Rain
1:59 AM 33.8 °F 29.6 °F 30.2 °F 87% 29.09 in 2.5 mi ENE 4.6 mph - 0.00 in Rain Light Rain
2:08 AM 33.8 °F 26.4 °F 32.0 °F 93% 29.10 in 4.0 mi NE 9.2 mph - 0.00 in   Scattered Clouds
2:53 AM 42.1 °F 35.2 °F 34.0 °F 73% 29.12 in 10.0 mi SSW 12.7 mph 19.6 mph 0.00 in Rain Light Rain
3:11 AM 42.8 °F 34.5 °F 33.8 °F 70% 29.10 in 10.0 mi South 18.4 mph 25.3 mph 0.00 in Rain Light Rain
3:53 AM 43.0 °F 34.2 °F 34.0 °F 71% 29.14 in 10.0 mi SW 20.7 mph 35.7 mph 0.00 in Rain Light Rain
4:53 AM 44.1 °F 37.4 °F 33.1 °F 65% 29.17 in 10.0 mi WSW 13.8 mph 29.9 mph 0.01 in   Partly Cloudy
5:53 AM 44.1 °F 37.1 °F 32.0 °F 63% 29.23 in 10.0 mi WSW 15.0 mph 23.0 mph N/A   Clear
6:53 AM 45.0 °F 37.4 °F 30.0 °F 56% 29.29 in 10.0 mi SW 18.4 mph 24.2 mph N/A   Partly Cloudy
7:53 AM 43.0 °F 40.3 °F 30.0 °F 60% 29.36 in 10.0 mi Variable 4.6 mph - N/A   Partly Cloudy
8:53 AM 43.0 °F 35.7 °F 30.0 °F 60% 29.36 in 10.0 mi WSW 15.0 mph - N/A   Scattered Clouds
9:53 AM 43.0 °F 35.7 °F 28.9 °F 58% 29.45 in 10.0 mi SW 15.0 mph 21.9 mph N/A   Scattered Clouds
10:53 AM 44.1 °F 39.5 °F 28.0 °F 53% 29.51 in 10.0 mi WSW 8.1 mph - N/A   Scattered Clouds
11:53 AM 45.0 °F 38.5 °F 25.0 °F 46% 29.55 in 10.0 mi WSW 13.8 mph 23.0 mph N/A   Scattered Clouds
12:53 PM 45.0 °F 41.2 °F 27.0 °F 49% 29.59 in 10.0 mi West 6.9 mph - N/A   Scattered Clouds
1:53 PM 44.1 °F 39.5 °F 25.0 °F 47% 29.62 in 10.0 mi WSW 8.1 mph - N/A   Scattered Clouds
4:53 PM 37.9 °F 30.9 °F 24.1 °F 57% 29.75 in 10.0 mi WSW 10.4 mph 18.4 mph N/A   Clear
5:53 PM 32.0 °F - 24.1 °F 73% 29.80 in 10.0 mi Calm Calm - N/A   Clear
6:53 PM 30.0 °F 22.4 °F 21.9 °F 72% 29.82 in 10.0 mi WSW 8.1 mph - N/A   Clear
7:53 PM 32.0 °F 24.8 °F 21.9 °F 66% 29.83 in 10.0 mi SW 8.1 mph - N/A   Clear
8:53 PM 32.0 °F 27.5 °F 19.0 °F 59% 29.86 in 10.0 mi West 4.6 mph - N/A   Clear
9:53 PM 25.0 °F 20.7 °F 17.1 °F 72% 29.89 in 10.0 mi WNW 3.5 mph - N/A   Clear
10:53 PM 19.9 °F 12.1 °F 14.0 °F 78% 29.90 in 10.0 mi WNW 5.8 mph - N/A   Clear
11:53 PM 19.0 °F 13.9 °F 14.0 °F 81% 29.91 in 10.0 mi WNW 3.5 mph - N/A   Clear